Air Resources Laboratory banner image
Air Resources Laboratory web site National Oceanic and Atmospheric Administration (NOAA)

ms roundup


Office: JAN

ASUS44 KJAN 141310
RWRMS

MISSISSIPPI HOURLY WEATHER ROUNDUP
NATIONAL WEATHER SERVICE JACKSON MS
700 AM CST THU DEC 14 2017

NOTE: "FAIR: INDICATES FEW OR NO CLOUDS BELOW 12,000 FEET WITH NO
SIGNIFICANT WEATHER AND/OR OBSTRUCTIONS TO VISIBILITY.

MSZ001>002-007>008-010>013-018>021-025>028-034>036-141400-
NORTHWEST MISSISSIPPI

CITY           SKY/WX    TMP DP  RH WIND       PRES   REMARKS
BATESVILLE     FAIR      28  26  91 CALM      29.96R
CLARKSDALE     CLEAR     32  32 100 CALM      29.96R
CLEVELAND      FAIR      34  30  85 CALM      29.95R
GREENWOOD      CLEAR     33  30  88 S3        29.95R
GREENVILLE     CLEAR     34  29  82 CALM      29.95R
OLIVE BRANCH   PTCLDY    36  28  75 NE6       29.93  WCI  31
OXFORD         FAIR      30  27  86 CALM      29.96R
TUNICA           N/A    N/A N/A N/A N7        29.97R
WINONA         FAIR      31  30  97 CALM      29.95R
$$

MSZ003>006-009-014>017-022>024-029>033-037>039-141400-
NORTHEAST MISSISSIPPI

CITY           SKY/WX    TMP DP  RH WIND       PRES   REMARKS
ABERDEEN       FAIR      28  28 100 CALM      29.95S
COLUMBUS AFB   CLEAR     27  27  98 CALM      29.93S
CORINTH        FAIR      32  27  80 CALM      29.94R
GOLDN TRIANGLE CLEAR     38  30  73 CALM      29.94R
STARKVILLE     FAIR      32  30  93 CALM      29.95R
TUPELO         CLEAR     32  26  78 CALM      29.94R
$$

MSZ040-058-141400-
CENTRAL MISSISSIPPI

CITY           SKY/WX    TMP DP  RH WIND       PRES   REMARKS
JACKSON INTL   MOCLDY    37  32  82 S3        29.94R
JACKSON HAWKNS PTCLDY    37  34  89 CALM      29.95S
MADISON        FAIR      34  32  93 CALM      29.95R
MERIDIAN KEY   PTCLDY    35  34  96 S3        29.96S
MERIDIAN NAS   CLOUDY    41  33  73 W3        29.96R
RAYMOND          N/A     32  32 100 CALM      29.95S
VICKSBURG VKS  SUNNY     37  34  87 CALM      29.98R
$$

MSZ059>079-141400-
SOUTH MISSISSIPPI

CITY           SKY/WX    TMP DP  RH WIND       PRES   REMARKS
HATTIESBURG    PTCLDY    34  33  96 CALM      29.99R
LAUREL         FAIR      34  34 100 CALM      29.98S
MCCOMB         MOCLDY    37  33  85 CALM      29.96F
NATCHEZ        MOCLDY    37  35  92 S3        29.98R
PINE BELT      PTCLDY    33  31  92 CALM      29.98S FOG
$$

MSZ080>082-141400-
COASTAL MISSISSIPPI

CITY           SKY/WX    TMP DP  RH WIND       PRES   REMARKS
BAY ST LOUIS   CLEAR     36  36 100 CALM      30.01
BILOXI         MOCLDY    45  43  91 CALM      30.00R
PASCAGOULA     CLOUDY    38  35  89 CALM      30.01R FOG
GULFPORT       MOCLDY    41  40  96 CALM      30.01R FOG
$$

LAZ007>009-015>016-023>026-141400-
NORTHEAST LOUISIANA

CITY           SKY/WX    TMP DP  RH WIND       PRES   REMARKS
BASTROP        FAIR      32  32  99 CALM      29.97R
TALLULAH/VBURG MOCLDY    32  31  96 SW3       29.97R
VIDALIA          N/A    N/A N/A N/A MISG      29.97R
$$